Showing default

OPS 9343 (IDSCS 21), 3286

Orbit data source: Space-Track

OPS 9343 (IDSCS 21), 3286 is a payload satellite owned by SAMSO (US) in GEO that was launched on Thu, 13 Jun 1968 UTC via a TITAN IIIC launch vehicle from the Air Force Eastern Test Range (AFETR). Payload-class satellites include a variety of spacecraft equipped with specific instruments for various scientific and technological missions. These include communications satellites like Starlink; space stations such as the ISS; scientific satellites like the Hubble; Earth observation satellites from companies like Planet Labs, Umbra, and HawkEye 360; GPS; miniature CubeSats for education and research; and military/defense satellites.

Not visible in the next 10 days
Identifier
3286, 1968-050C
Orbit
GEO
Country
Flag of USUS
Related business
Manufacturer
Philco-Ford
Mission
Non-operational spacecraft
Bus & Motor
IDCSP, Unknown motor
Mass
45 kg wet, 45 kg dry
Launch date (UTC)
1968-06-13 (58 years ago)
Launch vehicle
TITAN IIIC
Launch site
Air Force Eastern Test Range (AFETR)
Object type
Payload
Rocket body
Debris
Shape & HBR
Unknown
Radar Cross Section
Medium (>0.1 m² and <1 m²)

Expand to show TLE details & history
Last TLE update: 17 hours ago

TLE from 17 hours ago
0 OPS 9343 (IDSCS 21)
1 03286U 68050C   25348.91827737 -.00000056  00000-0  00000-0 0  9996
2 03286   6.8443  53.6367 0019852 151.0557 222.2610  1.07757629 45474
Epoch: 2025-12-14T22:02Z
TLE epoch observation values (Epoch: 2025-12-14T22:02:19.164Z)
Latitude
1.57389°
Longitude
12.30069°
Altitude
33,869.046 km
Speed
3.145 km/s
True Right ascension
04h 26m 49s
True Declination
1° 34' 20"
Sunlit
Object was in daylight at epoch
Visualization orbit readout
Latitude
Unknown
Longitude
Unknown
Altitude
Unknown
Speed
Unknown
Apparent Right ascension
Unknown
Apparent Declination
Unknown
Sunlit
N/A
Visualization observer readout
Local Sidereal Time
13:22:57
Azimuth
Unknown
Elevation
Unknown
Doppler factor
Unknown
Orbital elements
Apogee altitude
33,891.371 km
Perigee altitude
33,731.801 km
Semi-major axis
40,189.723 km
Eccentricity
0.00199
Inclination
6.8443°
RAAN
53.6367°
Arg. of periapsis
151.0557°
True anomaly
222.10829°
Mean anomaly
222.261°
Eccentric anomaly
222.18462°
Mean motion
0.26938 °/min
Orbital period
1,336.39 mins
BSTAR
0
Loading maneuver chart data...
Computing Atmospheric mass density...
Loading historical data...
Loading historical data...
Loading historical data...
Loading historical data...
Loading historical data...
Loading historical data...
Loading historical data...

Documentation

Showing up to 5 results
|